| time (UTC) | temp F | wind direction | speed MPH | gust MPH | rain 1hr in | rain 24hr in | rain mn in | humidity % | barometer mb |
| 20260508202932 | 69 | 154 | 5.0 | 15.0 | 0.00 | 0.00 | 0.00 | 35 | 1005.9 |
| 20260508202439 | 69 | 123 | 5.0 | 15.0 | 0.00 | 0.00 | 0.00 | 37 | 1005.9 |
| 20260508201924 | 69 | 110 | 5.0 | 13.0 | 0.00 | 0.00 | 0.00 | 37 | 1006.0 |
| 20260508201453 | 69 | 142 | 7.0 | 13.0 | 0.00 | 0.00 | 0.00 | 37 | 1006.0 |
| 20260508200939 | 68 | 77 | 2.0 | 7.0 | 0.00 | 0.00 | 0.00 | 40 | 1006.1 |
| 20260508200422 | 67 | 172 | 2.0 | 7.0 | 0.00 | 0.00 | 0.00 | 36 | 1006.1 |
| 20260508195929 | 68 | 104 | 1.0 | 10.0 | 0.00 | 0.00 | 0.00 | 39 | 1006.3 |
| 20260508195438 | 68 | 127 | 4.0 | 11.0 | 0.00 | 0.00 | 0.00 | 41 | 1006.3 |
| 20260508194922 | 68 | 126 | 8.0 | 15.0 | 0.00 | 0.00 | 0.00 | 39 | 1006.5 |
| 20260508194427 | 68 | 167 | 7.0 | 15.0 | 0.00 | 0.00 | 0.00 | 41 | 1006.5 |
| 20260508193935 | 68 | 119 | 5.0 | 13.0 | 0.00 | 0.00 | 0.00 | 40 | 1006.5 |
| 20260508193423 | 68 | 111 | 5.0 | 12.0 | 0.00 | 0.00 | 0.00 | 43 | 1006.5 |
| 20260508192929 | 68 | 126 | 6.0 | 11.0 | 0.00 | 0.00 | 0.00 | 43 | 1006.7 |
| 20260508192420 | 66 | 69 | 2.0 | 10.0 | 0.00 | 0.00 | 0.00 | 43 | 1006.7 |
| 20260508191927 | 66 | 120 | 3.0 | 10.0 | 0.00 | 0.00 | 0.00 | 42 | 1006.8 |
| 20260508191455 | 66 | 124 | 6.0 | 10.0 | 0.00 | 0.00 | 0.00 | 42 | 1006.9 |
| 20260508190940 | 66 | 202 | 5.0 | 8.0 | 0.00 | 0.00 | 0.00 | 47 | 1006.9 |
| 20260508190447 | 66 | 219 | 5.0 | 8.0 | 0.00 | 0.00 | 0.00 | 45 | 1006.9 |
| 20260508185934 | 66 | 221 | 5.0 | 8.0 | 0.00 | 0.00 | 0.00 | 47 | 1007.0 |
| 20260508185424 | 66 | 190 | 6.0 | 8.0 | 0.00 | 0.00 | 0.00 | 42 | 1007.1 |
| 20260508184952 | 68 | 134 | 3.0 | 8.0 | 0.00 | 0.00 | 0.00 | 46 | 1007.1 |
| 20260508184437 | 68 | 66 | 6.0 | 11.0 | 0.00 | 0.00 | 0.00 | 46 | 1007.1 |
| 20260508183943 | 67 | 114 | 4.0 | 14.0 | 0.00 | 0.00 | 0.00 | 43 | 1007.3 |
| 20260508183430 | 67 | 110 | 7.0 | 14.0 | 0.00 | 0.00 | 0.00 | 41 | 1007.3 |
| 20260508182938 | 67 | 45 | 3.0 | 10.0 | 0.00 | 0.00 | 0.00 | 45 | 1007.3 |
| 20260508182422 | 67 | 138 | 7.0 | 10.0 | 0.00 | 0.00 | 0.00 | 49 | 1007.4 |
| 20260508181929 | 67 | 109 | 2.0 | 14.0 | 0.00 | 0.00 | 0.00 | 46 | 1007.5 |
| 20260508181437 | 68 | 129 | 7.0 | 14.0 | 0.00 | 0.00 | 0.00 | 45 | 1007.6 |
| 20260508180919 | 67 | 59 | 5.0 | 11.0 | 0.00 | 0.00 | 0.00 | 50 | 1007.5 |
| 20260508180428 | 67 | 183 | 3.0 | 9.0 | 0.00 | 0.00 | 0.00 | 50 | 1007.6 |
| 20260508175954 | 67 | 111 | 3.0 | 13.0 | 0.00 | 0.00 | 0.00 | 50 | 1007.6 |
| 20260508175422 | 67 | 115 | 7.0 | 13.0 | 0.00 | 0.00 | 0.00 | 48 | 1007.6 |
| 20260508174932 | 67 | 109 | 4.0 | 11.0 | 0.00 | 0.00 | 0.00 | 58 | 1007.7 |
| 20260508174422 | 67 | 24 | 5.0 | 10.0 | 0.00 | 0.00 | 0.00 | 53 | 1007.8 |
| 20260508173949 | 66 | 135 | 4.0 | 10.0 | 0.00 | 0.00 | 0.00 | 46 | 1008.1 |
| 20260508173435 | 67 | 126 | 5.0 | 11.0 | 0.00 | 0.00 | 0.00 | 53 | 1008.2 |
| 20260508172945 | 66 | 123 | 5.0 | 11.0 | 0.00 | 0.00 | 0.00 | 54 | 1008.2 |
| 20260508172430 | 65 | 130 | 3.0 | 10.0 | 0.00 | 0.00 | 0.00 | 51 | 1008.3 |
| 20260508171939 | 65 | 50 | 3.0 | 11.0 | 0.00 | 0.00 | 0.00 | 50 | 1008.4 |
| 20260508171449 | 65 | 134 | 5.0 | 11.0 | 0.00 | 0.00 | 0.00 | 51 | 1008.5 |
| 20260508170939 | 65 | 109 | 5.0 | 10.0 | 0.00 | 0.00 | 0.00 | 55 | 1008.5 |
| 20260508170427 | 65 | 47 | 3.0 | 10.0 | 0.00 | 0.00 | 0.00 | 59 | 1008.5 |
| 20260508165932 | 65 | 136 | 5.0 | 10.0 | 0.00 | 0.00 | 0.00 | 56 | 1008.6 |
| 20260508165438 | 65 | 360 | 5.0 | 9.0 | 0.00 | 0.00 | 0.00 | 58 | 1008.6 |
| 20260508164924 | 65 | 61 | 4.0 | 9.0 | 0.00 | 0.00 | 0.00 | 60 | 1008.7 |
| 20260508164432 | 64 | 123 | 1.0 | 4.0 | 0.00 | 0.00 | 0.00 | 55 | 1008.7 |
| 20260508163922 | 63 | 104 | 2.0 | 5.0 | 0.00 | 0.00 | 0.00 | 60 | 1008.8 |
| 20260508163445 | 63 | 99 | 3.0 | 7.0 | 0.00 | 0.00 | 0.00 | 62 | 1008.8 |
| 20260508162932 | 63 | 71 | 2.0 | 10.0 | 0.00 | 0.00 | 0.00 | 61 | 1008.9 |
| 20260508162422 | 63 | 123 | 3.0 | 8.0 | 0.00 | 0.00 | 0.00 | 66 | 1009.0 |
| 20260508161929 | 63 | 333 | 5.0 | 8.0 | 0.00 | 0.00 | 0.00 | 61 | 1009.1 |
| 20260508161435 | 64 | 67 | 3.0 | 10.0 | 0.00 | 0.00 | 0.00 | 63 | 1009.1 |
| 20260508160921 | 64 | 135 | 4.0 | 8.0 | 0.00 | 0.00 | 0.00 | 62 | 1009.1 |
| 20260508160433 | 64 | 297 | 3.0 | 11.0 | 0.00 | 0.00 | 0.00 | 64 | 1009.2 |
| 20260508155939 | 64 | 31 | 3.0 | 11.0 | 0.00 | 0.00 | 0.00 | 65 | 1009.4 |
| 20260508155427 | 63 | 52 | 3.0 | 6.0 | 0.00 | 0.00 | 0.00 | 64 | 1009.3 |
| 20260508154918 | 62 | 123 | 1.0 | 6.0 | 0.00 | 0.00 | 0.00 | 66 | 1009.4 |
| 20260508154427 | 62 | 36 | 2.0 | 8.0 | 0.00 | 0.00 | 0.00 | 67 | 1009.5 |
| 20260508153932 | 62 | 119 | 4.0 | 8.0 | 0.00 | 0.00 | 0.00 | 66 | 1009.6 |
| 20260508153423 | 62 | 97 | 1.0 | 5.0 | 0.00 | 0.00 | 0.00 | 68 | 1009.7 |
| 20260508152933 | 62 | 94 | 2.0 | 7.0 | 0.00 | 0.00 | 0.00 | 66 | 1009.7 |
| 20260508152421 | 62 | 132 | 3.0 | 7.0 | 0.00 | 0.00 | 0.00 | 67 | 1009.7 |
| 20260508151951 | 62 | 58 | 3.0 | 7.0 | 0.00 | 0.00 | 0.00 | 68 | 1009.7 |
| 20260508151438 | 61 | 147 | 1.0 | 9.0 | 0.00 | 0.00 | 0.00 | 70 | 1009.7 |
| 20260508150921 | 61 | 130 | 4.0 | 9.0 | 0.00 | 0.00 | 0.00 | 68 | 1009.7 |
| 20260508150448 | 60 | 116 | 3.0 | 8.0 | 0.00 | 0.00 | 0.00 | 68 | 1009.7 |
| 20260508145955 | 61 | 134 | 6.0 | 8.0 | 0.00 | 0.00 | 0.00 | 65 | 1009.9 |
| 20260508145440 | 61 | 9 | 1.0 | 8.0 | 0.00 | 0.00 | 0.00 | 67 | 1009.9 |
| 20260508144949 | 61 | 5 | 2.0 | 6.0 | 0.00 | 0.00 | 0.00 | 67 | 1010.0 |
| 20260508144440 | 60 | 59 | 3.0 | 7.0 | 0.00 | 0.00 | 0.00 | 66 | 1010.0 |
| 20260508143924 | 59 | 49 | 3.0 | 9.0 | 0.00 | 0.00 | 0.00 | 69 | 1009.9 |
| 20260508143436 | 59 | 360 | 4.0 | 7.0 | 0.00 | 0.00 | 0.00 | 69 | 1009.9 |
| 20260508142923 | 59 | 16 | 4.0 | 6.0 | 0.00 | 0.00 | 0.00 | 70 | 1010.0 |
| 20260508142430 | 59 | 39 | 4.0 | 7.0 | 0.00 | 0.00 | 0.00 | 70 | 1010.0 |
| 20260508141939 | 58 | 15 | 5.0 | 7.0 | 0.00 | 0.00 | 0.00 | 69 | 1010.1 |
| 20260508141426 | 59 | 35 | 4.0 | 7.0 | 0.00 | 0.00 | 0.00 | 69 | 1010.0 |
| 20260508140932 | 58 | 9 | 4.0 | 6.0 | 0.00 | 0.00 | 0.00 | 69 | 1010.1 |
| 20260508140437 | 58 | 9 | 5.0 | 7.0 | 0.00 | 0.00 | 0.00 | 68 | 1010.1 |
| 20260508135948 | 58 | 9 | 3.0 | 7.0 | 0.00 | 0.00 | 0.00 | 68 | 1010.2 |
| 20260508135430 | 58 | 9 | 3.0 | 6.0 | 0.00 | 0.00 | 0.00 | 67 | 1010.1 |
| 20260508134937 | 57 | 9 | 3.0 | 6.0 | 0.00 | 0.00 | 0.00 | 67 | 1010.1 |
| 20260508134424 | 57 | 10 | 3.0 | 6.0 | 0.00 | 0.00 | 0.00 | 66 | 1010.1 |
| 20260508133928 | 57 | 9 | 3.0 | 6.0 | 0.00 | 0.00 | 0.00 | 66 | 1010.1 |
| 20260508133436 | 57 | 9 | 3.0 | 6.0 | 0.00 | 0.00 | 0.00 | 68 | 1010.0 |
| 20260508132925 | 56 | 51 | 4.0 | 7.0 | 0.00 | 0.00 | 0.00 | 67 | 1010.0 |
| 20260508132435 | 56 | 63 | 5.0 | 7.0 | 0.00 | 0.00 | 0.00 | 66 | 1009.9 |
| 20260508131922 | 56 | 66 | 4.0 | 7.0 | 0.00 | 0.00 | 0.00 | 64 | 1010.0 |
| 20260508131431 | 55 | 46 | 4.0 | 6.0 | 0.00 | 0.00 | 0.00 | 65 | 1010.1 |
| 20260508130942 | 55 | 44 | 3.0 | 6.0 | 0.00 | 0.00 | 0.00 | 64 | 1010.1 |
| 20260508130450 | 55 | 62 | 5.0 | 7.0 | 0.00 | 0.00 | 0.00 | 62 | 1010.2 |
| 20260508125918 | 54 | 57 | 3.0 | 5.0 | 0.00 | 0.00 | 0.00 | 61 | 1010.2 |
| 20260508125428 | 54 | 57 | 3.0 | 5.0 | 0.00 | 0.00 | 0.00 | 61 | 1010.3 |
| 20260508124935 | 53 | 63 | 3.0 | 5.0 | 0.00 | 0.00 | 0.00 | 59 | 1010.3 |
| 20260508124419 | 53 | 70 | 2.0 | 4.0 | 0.00 | 0.00 | 0.00 | 61 | 1010.4 |
| 20260508123927 | 52 | 80 | 2.0 | 4.0 | 0.00 | 0.00 | 0.00 | 61 | 1010.3 |
| 20260508123434 | 51 | 60 | 2.0 | 5.0 | 0.00 | 0.00 | 0.00 | 60 | 1010.4 |
| 20260508122941 | 51 | 53 | 3.0 | 5.0 | 0.00 | 0.00 | 0.00 | 59 | 1010.3 |
| 20260508122427 | 50 | 51 | 2.0 | 4.0 | 0.00 | 0.00 | 0.00 | 60 | 1010.3 |
| 20260508121932 | 50 | 24 | 2.0 | 4.0 | 0.00 | 0.00 | 0.00 | 63 | 1010.2 |
| 20260508121443 | 49 | 24 | 3.0 | 4.0 | 0.00 | 0.00 | 0.00 | 62 | 1010.2 |
| 20260508120927 | 48 | 24 | 1.0 | 4.0 | 0.00 | 0.00 | 0.00 | 64 | 1010.2 |
| 20260508120437 | 48 | 24 | 2.0 | 4.0 | 0.00 | 0.00 | 0.00 | 61 | 1010.1 |
| 20260508115925 | 48 | 17 | 2.0 | 3.0 | 0.00 | 0.00 | 0.00 | 61 | 1010.1 |
| 20260508115433 | 48 | 11 | 2.0 | 4.0 | 0.00 | 0.00 | 0.00 | 64 | 1010.1 |
| 20260508114924 | 47 | 11 | 2.0 | 4.0 | 0.00 | 0.00 | 0.00 | 64 | 1010.0 |
| 20260508114431 | 47 | 10 | 3.0 | 4.0 | 0.00 | 0.00 | 0.00 | 65 | 1010.0 |
| 20260508113957 | 46 | 18 | 2.0 | 4.0 | 0.00 | 0.00 | 0.00 | 66 | 1009.8 |
| 20260508113425 | 45 | 17 | 2.0 | 4.0 | 0.00 | 0.00 | 0.00 | 68 | 1009.8 |
| 20260508112921 | 45 | 347 | 2.0 | 4.0 | 0.00 | 0.00 | 0.00 | 70 | 1009.8 |
| 20260508112433 | 45 | 346 | 2.0 | 4.0 | 0.00 | 0.00 | 0.00 | 71 | 1009.7 |
| 20260508111923 | 45 | 350 | 3.0 | 4.0 | 0.00 | 0.00 | 0.00 | 70 | 1009.6 |
| 20260508111434 | 45 | 5 | 2.0 | 4.0 | 0.00 | 0.00 | 0.00 | 70 | 1009.6 |
| 20260508110923 | 0 | 337 | 2.0 | 4.0 | 0.00 | 0.00 | 0.00 | 1009.6 | |
| 20260508110429 | 0 | 336 | 3.0 | 5.0 | 0.00 | 0.00 | 0.00 | 1009.4 | |
| 20260508105937 | 0 | 327 | 4.0 | 5.0 | 0.00 | 0.00 | 0.00 | 1009.5 | |
| 20260508105423 | 0 | 341 | 3.0 | 5.0 | 0.00 | 0.00 | 0.00 | 1009.6 | |
| 20260508104934 | 0 | 360 | 3.0 | 3.0 | 0.00 | 0.00 | 0.00 | 1009.5 | |
| 20260508104425 | 0 | 360 | 1.0 | 2.0 | 0.00 | 0.00 | 0.00 | 1009.6 | |
| 20260508103938 | 0 | 360 | 1.0 | 4.0 | 0.00 | 0.00 | 0.00 | 1009.6 | |
| 20260508103429 | 0 | 360 | 2.0 | 4.0 | 0.00 | 0.00 | 0.00 | 1009.5 | |
| 20260508102919 | 0 | 20 | 3.0 | 4.0 | 0.00 | 0.00 | 0.00 | 1009.5 | |
| 20260508102428 | 0 | 22 | 3.0 | 4.0 | 0.00 | 0.00 | 0.00 | 1009.5 | |
| 20260508101959 | 0 | 22 | 2.0 | 4.0 | 0.00 | 0.00 | 0.00 | 1009.7 | |
| 20260508101423 | 0 | 22 | 2.0 | 4.0 | 0.00 | 0.00 | 0.00 | 1009.7 | |
| 20260508100931 | 0 | 24 | 2.0 | 4.0 | 0.00 | 0.00 | 0.00 | 1009.8 | |
| 20260508100421 | 0 | 24 | 2.0 | 3.0 | 0.00 | 0.00 | 0.00 | 1009.9 | |
| 20260508095934 | 0 | 24 | 1.0 | 3.0 | 0.00 | 0.00 | 0.00 | 1010.0 | |
| 20260508095446 | 0 | 24 | 2.0 | 4.0 | 0.00 | 0.00 | 0.00 | 1010.1 | |
| 20260508094452 | 0 | 23 | 1.0 | 4.0 | 0.00 | 0.00 | 0.00 | 1009.8 | |
| 20260508093937 | 0 | 23 | 2.0 | 4.0 | 0.00 | 0.00 | 0.00 | 1009.8 | |
| 20260508093423 | 0 | 23 | 2.0 | 6.0 | 0.00 | 0.00 | 0.00 | 1009.8 | |
| 20260508092930 | 0 | 13 | 3.0 | 6.0 | 0.00 | 0.00 | 0.00 | 1009.7 | |
| 20260508092438 | 0 | 350 | 2.0 | 3.0 | 0.00 | 0.00 | 0.00 | 1010.0 | |
| 20260508091923 | 0 | 348 | 2.0 | 3.0 | 0.00 | 0.00 | 0.00 | 1010.1 | |
| 20260508091432 | 0 | 348 | 1.0 | 3.0 | 0.00 | 0.00 | 0.00 | 1010.2 | |
| 20260508090920 | 0 | 336 | 1.0 | 3.0 | 0.00 | 0.00 | 0.00 | 1010.3 | |
| 20260508090432 | 0 | 334 | 1.0 | 3.0 | 0.00 | 0.00 | 0.00 | 1010.3 | |
| 20260508085921 | 0 | 331 | 2.0 | 3.0 | 0.00 | 0.00 | 0.00 | 1010.2 | |
| 20260508085450 | 0 | 330 | 2.0 | 3.0 | 0.00 | 0.00 | 0.00 | 1010.3 | |
| 20260508084919 | 0 | 315 | 2.0 | 3.0 | 0.00 | 0.00 | 0.00 | 1010.4 | |
| 20260508084427 | 0 | 310 | 0.0 | 3.0 | 0.00 | 0.00 | 0.00 | 1010.4 | |
| 20260508083935 | 0 | 309 | 1.0 | 3.0 | 0.00 | 0.00 | 0.00 | 1010.4 | |
| 20260508083419 | 0 | 309 | 1.0 | 4.0 | 0.00 | 0.00 | 0.00 | 1010.4 | |
| 20260508082926 | 0 | 309 | 3.0 | 4.0 | 0.00 | 0.00 | 0.00 | 1010.4 | |
| 20260508082432 | 0 | 307 | 1.0 | 3.0 | 0.00 | 0.00 | 0.00 | 1010.4 | |
| 20260508081922 | 0 | 307 | 0.0 | 3.0 | 0.00 | 0.00 | 0.00 | 1010.5 | |
| 20260508081449 | 0 | 306 | 2.0 | 3.0 | 0.00 | 0.00 | 0.00 | 1010.4 | |
| 20260508080935 | 0 | 306 | 3.0 | 3.0 | 0.00 | 0.00 | 0.00 | 1010.4 | |
| 20260508080502 | 0 | 306 | 2.0 | 3.0 | 0.00 | 0.00 | 0.00 | 1010.6 | |
| 20260508075927 | 0 | 305 | 1.0 | 3.0 | 0.00 | 0.00 | 0.00 | 1010.7 | |
| 20260508075452 | 0 | 305 | 2.0 | 4.0 | 0.00 | 0.00 | 0.00 | 1010.7 | |
| 20260508074919 | 0 | 304 | 2.0 | 4.0 | 0.00 | 0.00 | 0.00 | 1010.7 | |
| 20260508074431 | 0 | 300 | 4.0 | 4.0 | 0.00 | 0.00 | 0.00 | 1010.7 | |
| 20260508073958 | 0 | 296 | 1.0 | 3.0 | 0.00 | 0.00 | 0.00 | 1010.9 | |
| 20260508073501 | 0 | 296 | 1.0 | 3.0 | 0.00 | 0.00 | 0.00 | 1010.9 | |
| 20260508072927 | 0 | 296 | 2.0 | 3.0 | 0.00 | 0.00 | 0.00 | 1010.9 | |
| 20260508072455 | 0 | 296 | 2.0 | 3.0 | 0.00 | 0.00 | 0.00 | 1011.0 | |
| 20260508071940 | 0 | 295 | 2.0 | 3.0 | 0.00 | 0.00 | 0.00 | 1011.0 | |
| 20260508071445 | 0 | 295 | 2.0 | 4.0 | 0.00 | 0.00 | 0.00 | 1011.1 | |
| 20260508070929 | 0 | 294 | 2.0 | 4.0 | 0.00 | 0.00 | 0.00 | 1011.2 | |
| 20260508070437 | 0 | 294 | 2.0 | 4.0 | 0.00 | 0.00 | 0.00 | 1011.2 | |
| 20260508065927 | 0 | 294 | 1.0 | 5.0 | 0.00 | 0.00 | 0.00 | 1011.2 | |
| 20260508065438 | 0 | 294 | 1.0 | 5.0 | 0.00 | 0.00 | 0.00 | 1011.2 | |
| 20260508064929 | 0 | 296 | 4.0 | 5.0 | 0.00 | 0.00 | 0.00 | 1011.2 | |
| 20260508064441 | 0 | 294 | 3.0 | 5.0 | 0.00 | 0.00 | 0.00 | 1011.3 | |
| 20260508063929 | 0 | 296 | 3.0 | 5.0 | 0.00 | 0.00 | 0.00 | 1011.3 | |
| 20260508063502 | 0 | 290 | 2.0 | 4.0 | 0.00 | 0.00 | 0.00 | 1011.3 | |
| 20260508062928 | 0 | 284 | 1.0 | 3.0 | 0.00 | 0.00 | 0.00 | 1011.3 | |
| 20260508062437 | 0 | 285 | 2.0 | 3.0 | 0.00 | 0.00 | 0.00 | 1011.3 | |
| 20260508061928 | 0 | 280 | 0.0 | 2.0 | 0.00 | 0.00 | 0.00 | 1011.3 | |
| 20260508061437 | 0 | 280 | 0.0 | 0.0 | 0.00 | 0.00 | 0.00 | 1011.2 | |
| 20260508060926 | 0 | 280 | 0.0 | 0.0 | 0.00 | 0.00 | 0.00 | 1011.3 | |
| 20260508060433 | 0 | 280 | 0.0 | 0.0 | 0.00 | 0.00 | 0.00 | 1011.3 | |
| 20260508055922 | 0 | 280 | 0.0 | 2.0 | 0.00 | 0.00 | 0.00 | 1011.3 | |
| 20260508055434 | 0 | 280 | 0.0 | 2.0 | 0.00 | 0.00 | 0.00 | 1011.3 | |
| 20260508054929 | 0 | 280 | 0.0 | 4.0 | 0.00 | 0.00 | 0.00 | 1011.4 | |
| 20260508054435 | 0 | 248 | 2.0 | 4.0 | 0.00 | 0.00 | 0.00 | 1011.3 | |
| 20260508053940 | 0 | 169 | 1.0 | 2.0 | 0.00 | 0.00 | 0.00 | 1011.2 | |
| 20260508053445 | 0 | 170 | 0.0 | 2.0 | 0.00 | 0.00 | 0.00 | 1011.2 | |
| 20260508052934 | 0 | 171 | 1.0 | 3.0 | 0.00 | 0.00 | 0.00 | 1011.0 | |
| 20260508052422 | 0 | 171 | 2.0 | 3.0 | 0.00 | 0.00 | 0.00 | 1011.1 | |
| 20260508051931 | 0 | 171 | 3.0 | 3.0 | 0.00 | 0.00 | 0.00 | 1011.2 | |
| 20260508051438 | 0 | 169 | 1.0 | 3.0 | 0.00 | 0.00 | 0.00 | 1011.2 | |
| 20260508050924 | 0 | 149 | 1.0 | 3.0 | 0.00 | 0.00 | 0.00 | 1011.1 | |
| 20260508050430 | 0 | 146 | 0.0 | 0.0 | 0.00 | 0.00 | 0.00 | 1011.1 | |
| 20260508045918 | 0 | 146 | 0.0 | 0.0 | 0.00 | 0.00 | 0.00 | 1010.9 | |
| 20260508045429 | 0 | 148 | 0.0 | 0.0 | 0.00 | 0.00 | 0.00 | 1010.9 | |
| 20260508044936 | 0 | 148 | 0.0 | 0.0 | 0.00 | 0.00 | 0.00 | 1010.8 | |
| 20260508044424 | 0 | 148 | 0.0 | 0.0 | 0.00 | 0.00 | 0.00 | 1010.8 | |
| 20260508043931 | 0 | 148 | 0.0 | 0.0 | 0.00 | 0.00 | 0.00 | 1010.8 | |
| 20260508043502 | 0 | 148 | 0.0 | 0.0 | 0.00 | 0.00 | 0.00 | 1010.7 | |
| 20260508042927 | 0 | 148 | 0.0 | 0.0 | 0.00 | 0.00 | 0.00 | 1010.7 | |
| 20260508042435 | 0 | 148 | 0.0 | 0.0 | 0.00 | 0.00 | 0.00 | 1010.7 | |
| 20260508041942 | 0 | 148 | 0.0 | 1.0 | 0.00 | 0.00 | 0.00 | 1010.7 | |
| 20260508041429 | 0 | 148 | 0.0 | 1.0 | 0.00 | 0.00 | 0.00 | 1010.7 | |
| 20260508040938 | 0 | 148 | 0.0 | 2.0 | 0.00 | 0.00 | 0.00 | 1010.7 | |
| 20260508040428 | 0 | 147 | 1.0 | 2.0 | 0.00 | 0.00 | 0.00 | 1010.7 | |
| 20260508035939 | 0 | 148 | 1.0 | 2.0 | 0.00 | 0.00 | 0.00 | 1010.6 | |
| 20260508035427 | 0 | 148 | 1.0 | 2.0 | 0.00 | 0.00 | 0.00 | 1010.6 | |
| 20260508034957 | 0 | 147 | 0.0 | 0.0 | 0.00 | 0.00 | 0.00 | 1010.5 | |
| 20260508034425 | 0 | 146 | 0.0 | 0.0 | 0.00 | 0.00 | 0.00 | 1010.5 | |
| 20260508033933 | 0 | 148 | 0.0 | 0.0 | 0.00 | 0.00 | 0.00 | 1010.6 | |
| 20260508033420 | 0 | 150 | 0.0 | 1.0 | 0.00 | 0.00 | 0.00 | 1010.5 | |
| 20260508032929 | 0 | 161 | 0.0 | 2.0 | 0.00 | 0.00 | 0.00 | 1010.4 | |
| 20260508032437 | 0 | 161 | 0.0 | 2.0 | 0.00 | 0.00 | 0.00 | 1010.4 | |
| 20260508031926 | 0 | 227 | 0.0 | 1.0 | 0.00 | 0.00 | 0.00 | 1010.4 | |
| 20260508031434 | 0 | 227 | 0.0 | 0.0 | 0.00 | 0.00 | 0.00 | 1010.3 | |
| 20260508030922 | 0 | 227 | 0.0 | 3.0 | 0.00 | 0.00 | 0.00 | 1010.3 | |
| 20260508030454 | 0 | 227 | 0.0 | 3.0 | 0.00 | 0.00 | 0.00 | 1010.3 | |
| 20260508025920 | 0 | 227 | 2.0 | 4.0 | 0.00 | 0.00 | 0.00 | 1010.2 | |
| 20260508025431 | 0 | 227 | 3.0 | 4.0 | 0.00 | 0.00 | 0.00 | 1010.3 | |
| 20260508024937 | 0 | 242 | 2.0 | 3.0 | 0.00 | 0.00 | 0.00 | 1010.2 | |
| 20260508023922 | 0 | 276 | 2.0 | 3.0 | 0.00 | 0.00 | 0.00 | 1010.1 | |
| 20260508023450 | 0 | 276 | 0.0 | 3.0 | 0.00 | 0.00 | 0.00 | 1010.0 | |
| 20260508022937 | 0 | 276 | 2.0 | 3.0 | 0.00 | 0.00 | 0.00 | 1009.9 | |
| 20260508022441 | 0 | 278 | 1.0 | 2.0 | 0.00 | 0.00 | 0.00 | 1009.9 | |
| 20260508021928 | 0 | 280 | 0.0 | 2.0 | 0.00 | 0.00 | 0.00 | 1009.9 | |
| 20260508021438 | 0 | 280 | 1.0 | 5.0 | 0.00 | 0.00 | 0.00 | 1009.8 | |
| 20260508020926 | 0 | 280 | 1.0 | 5.0 | 0.00 | 0.00 | 0.00 | 1009.7 | |
| 20260508020458 | 0 | 171 | 0.0 | 0.0 | 0.00 | 0.00 | 0.00 | 1009.5 | |
| 20260508015921 | 0 | 171 | 0.0 | 1.0 | 0.00 | 0.00 | 0.00 | 1009.5 | |
| 20260508015427 | 0 | 171 | 0.0 | 2.0 | 0.00 | 0.00 | 0.00 | 1009.5 | |
| 20260508014933 | 0 | 171 | 0.0 | 4.0 | 0.00 | 0.00 | 0.00 | 1009.4 | |
| 20260508014457 | 0 | 171 | 1.0 | 4.0 | 0.00 | 0.00 | 0.00 | 1009.4 | |
| 20260508013920 | 0 | 172 | 1.0 | 3.0 | 0.00 | 0.00 | 0.00 | 1009.3 | |
| 20260508013449 | 0 | 172 | 1.0 | 3.0 | 0.00 | 0.00 | 0.00 | 1009.2 | |
| 20260508012934 | 0 | 173 | 1.0 | 3.0 | 0.00 | 0.00 | 0.00 | 1009.2 | |
| 20260508012421 | 0 | 175 | 2.0 | 3.0 | 0.00 | 0.00 | 0.00 | 1009.2 | |
| 20260508011427 | 0 | 186 | 1.0 | 4.0 | 0.00 | 0.00 | 0.00 | 1009.1 | |
| 20260508010935 | 0 | 190 | 2.0 | 4.0 | 0.00 | 0.00 | 0.00 | 1009.1 | |
| 20260508010426 | 0 | 169 | 2.0 | 5.0 | 0.00 | 0.00 | 0.00 | 1009.1 | |
| 20260508005936 | 60 | 123 | 3.0 | 6.0 | 0.00 | 0.00 | 0.00 | 44 | 1009.0 |
| 20260508005444 | 60 | 143 | 3.0 | 6.0 | 0.00 | 0.00 | 0.00 | 44 | 1008.9 |
| 20260508004429 | 60 | 190 | 3.0 | 7.0 | 0.00 | 0.00 | 0.00 | 43 | 1008.8 |
| 20260508003955 | 61 | 191 | 3.0 | 7.0 | 0.00 | 0.00 | 0.00 | 44 | 1008.8 |
| 20260508003440 | 61 | 193 | 4.0 | 6.0 | 0.00 | 0.00 | 0.00 | 43 | 1008.7 |
| 20260508002948 | 61 | 145 | 2.0 | 7.0 | 0.00 | 0.00 | 0.00 | 43 | 1008.8 |
| 20260508002434 | 62 | 158 | 3.0 | 11.0 | 0.00 | 0.00 | 0.00 | 42 | 1008.8 |
| 20260508001924 | 62 | 172 | 4.0 | 11.0 | 0.00 | 0.00 | 0.00 | 42 | 1008.7 |
| 20260508001433 | 62 | 191 | 4.0 | 8.0 | 0.00 | 0.00 | 0.00 | 42 | 1008.8 |
| 20260508000921 | 62 | 155 | 3.0 | 7.0 | 0.00 | 0.00 | 0.00 | 42 | 1008.8 |
| 20260508000450 | 62 | 184 | 5.0 | 11.0 | 0.00 | 0.00 | 0.00 | 41 | 1008.7 |
| 20260507235955 | 63 | 213 | 6.0 | 11.0 | 0.00 | 0.00 | 0.00 | 42 | 1008.7 |
| 20260507235423 | 63 | 151 | 3.0 | 13.0 | 0.00 | 0.00 | 0.00 | 42 | 1008.7 |
| 20260507234934 | 62 | 185 | 4.0 | 13.0 | 0.00 | 0.00 | 0.00 | 42 | 1008.7 |
| 20260507234421 | 62 | 144 | 6.0 | 12.0 | 0.00 | 0.00 | 0.00 | 43 | 1008.7 |
| 20260507233929 | 61 | 206 | 7.0 | 12.0 | 0.00 | 0.00 | 0.00 | 43 | 1008.7 |
| 20260507233458 | 61 | 136 | 6.0 | 12.0 | 0.00 | 0.00 | 0.00 | 43 | 1008.7 |
| 20260507232922 | 61 | 120 | 5.0 | 11.0 | 0.00 | 0.00 | 0.00 | 43 | 1008.7 |
| 20260507232428 | 61 | 138 | 6.0 | 14.0 | 0.00 | 0.00 | 0.00 | 43 | 1008.7 |
| 20260507231932 | 61 | 182 | 7.0 | 15.0 | 0.00 | 0.00 | 0.00 | 42 | 1008.7 |
| 20260507231441 | 62 | 192 | 7.0 | 13.0 | 0.00 | 0.00 | 0.00 | 42 | 1008.7 |
| 20260507230929 | 62 | 173 | 6.0 | 13.0 | 0.00 | 0.00 | 0.00 | 42 | 1008.7 |
| 20260507230440 | 62 | 185 | 7.0 | 13.0 | 0.00 | 0.00 | 0.00 | 42 | 1008.7 |
| 20260507225946 | 62 | 186 | 7.0 | 15.0 | 0.00 | 0.00 | 0.00 | 44 | 1008.8 |
| 20260507225454 | 62 | 178 | 7.0 | 15.0 | 0.00 | 0.00 | 0.00 | 44 | 1008.8 |
| 20260507224939 | 62 | 202 | 7.0 | 14.0 | 0.00 | 0.00 | 0.00 | 44 | 1008.9 |
| 20260507224425 | 62 | 195 | 7.0 | 14.0 | 0.00 | 0.00 | 0.00 | 45 | 1008.9 |
| 20260507223931 | 62 | 186 | 8.0 | 11.0 | 0.00 | 0.00 | 0.00 | 46 | 1009.0 |
| 20260507223439 | 62 | 204 | 8.0 | 11.0 | 0.00 | 0.00 | 0.00 | 47 | 1009.0 |
| 20260507222923 | 61 | 200 | 6.0 | 10.0 | 0.00 | 0.00 | 0.00 | 50 | 1009.0 |
| 20260507222454 | 60 | 196 | 6.0 | 11.0 | 0.00 | 0.00 | 0.00 | 49 | 1009.0 |
| 20260507221924 | 60 | 219 | 7.0 | 11.0 | 0.00 | 0.00 | 0.00 | 48 | 1009.1 |
| 20260507221429 | 60 | 188 | 7.0 | 10.0 | 0.00 | 0.00 | 0.00 | 50 | 1009.1 |
| 20260507220939 | 60 | 200 | 6.0 | 11.0 | 0.00 | 0.00 | 0.00 | 51 | 1009.2 |
| 20260507220429 | 60 | 191 | 6.0 | 10.0 | 0.00 | 0.00 | 0.00 | 52 | 1009.1 |
| 20260507215934 | 60 | 195 | 7.0 | 13.0 | 0.00 | 0.00 | 0.00 | 52 | 1009.1 |
| 20260507215458 | 60 | 176 | 7.0 | 17.0 | 0.00 | 0.00 | 0.00 | 52 | 1009.1 |
| 20260507214925 | 58 | 117 | 9.0 | 21.0 | 0.00 | 0.00 | 0.00 | 53 | 1009.1 |
| 20260507214432 | 57 | 196 | 11.0 | 33.0 | 0.00 | 0.00 | 0.00 | 52 | 1009.2 |
| 20260507213940 | 57 | 150 | 15.0 | 33.0 | 0.00 | 0.00 | 0.00 | 48 | 1009.3 |
| 20260507213427 | 57 | 155 | 9.0 | 22.0 | 0.00 | 0.00 | 0.00 | 51 | 1009.2 |
| 20260507212921 | 57 | 109 | 7.0 | 23.0 | 0.00 | 0.00 | 0.00 | 54 | 1009.4 |
| 20260507212430 | 59 | 187 | 9.0 | 23.0 | 0.00 | 0.00 | 0.00 | 45 | 1009.4 |
| 20260507211934 | 60 | 205 | 10.0 | 20.0 | 0.00 | 0.00 | 0.00 | 43 | 1009.2 |
| 20260507211441 | 61 | 225 | 8.0 | 16.0 | 0.00 | 0.00 | 0.00 | 44 | 1009.1 |
| 20260507210927 | 61 | 127 | 10.0 | 23.0 | 0.00 | 0.00 | 0.00 | 43 | 1009.0 |
| 20260507210437 | 61 | 159 | 15.0 | 23.0 | 0.00 | 0.00 | 0.00 | 42 | 1008.7 |
| 20260507205922 | 63 | 165 | 11.0 | 18.0 | 0.00 | 0.00 | 0.00 | 42 | 1008.9 |
| 20260507205427 | 62 | 172 | 11.0 | 19.0 | 0.00 | 0.00 | 0.00 | 43 | 1009.0 |
| 20260507204936 | 61 | 134 | 9.0 | 24.0 | 0.00 | 0.00 | 0.00 | 45 | 1008.8 |
| 20260507204428 | 60 | 187 | 11.0 | 24.0 | 0.00 | 0.00 | 0.00 | 45 | 1009.0 |
| 20260507203920 | 61 | 127 | 10.0 | 21.0 | 0.00 | 0.00 | 0.00 | 44 | 1009.1 |
| 20260507203430 | 61 | 136 | 9.0 | 16.0 | 0.00 | 0.00 | 0.00 | 46 | 1009.1 |